Weather History for Cavalier, ND

Change the Weather History Date:

Monday, November 19, 2012

  Actual Average (KGAF) Record (KGAF)
Temperature  
Mean Temperature 29 °F -  
Max Temperature 39 °F 32 °F 54 °F (1989)
Min Temperature 17 °F 18 °F -10 °F (1978)
Degree Days  
Heating Degree Days 36    
Moisture  
Dew Point 26 °F    
Average Humidity 91    
Maximum Humidity 100    
Minimum Humidity 65    
Precipitation  
Precipitation 0.00 in - - ()
Sea Level Pressure  
Sea Level Pressure 30.02 in    
Wind  
Wind Speed 4 mph (West)    
Max Wind Speed 14 mph    
Max Gust Speed -    
Visibility 6 miles    
Events Fog    
Averages and records for this station are not official NWS values.
T = Trace of Precipitation, MM = Missing Value Source: NWS Daily Summary

Daily Weather History Graph

Daily Weather History Graph

Search for Another Location

Airport:

Trip Planner

Search our weather history database for the weather conditions in past years. The results will help you decide how hot, cold, wet, or windy it might be!

Date:

Astronomy

Nov. 19, 2012 Rise Set
Actual Time 7:46 AM CST 4:45 PM CST
Civil Twilight 7:11 AM CST 5:20 PM CST
Nautical Twilight 6:32 AM CST 5:59 PM CST
Astronomical Twilight 5:55 AM CST 6:36 PM CST
Moon 12:38 PM CST (11/19) 11:28 PM CST (11/19)
Length of Visible Light 10h 09m
Length of Day
8h 59m
Waxing Crescent, 41% of the Moon is Illuminated
Nov 19
Waxing Crescent
Nov 20
First Quarter
Nov 28
Full
Dec 6
Last Quarter
Dec 13
New

Hourly Weather History & Observations

Time (CST) Temp. Windchill Dew Point Humidity Pressure Visibility Wind Dir Wind Speed Gust Speed Precip Events Conditions
12:15 AM 23.0 °F - 23.0 °F 100% 29.87 in 0.2 mi Calm Calm - N/A Fog Light Freezing Fog
12:35 AM 23.0 °F 18.4 °F 23.0 °F 100% 29.87 in 0.2 mi South 3.5 mph - N/A Fog Light Freezing Fog
12:55 AM 23.0 °F 17.0 °F 23.0 °F 100% 29.87 in 0.2 mi SSW 4.6 mph - N/A Fog Light Freezing Fog
1:15 AM 24.8 °F 19.1 °F 24.8 °F 100% 29.87 in 0.2 mi South 4.6 mph - N/A Fog Light Freezing Fog
1:35 AM 23.0 °F - 23.0 °F 100% 29.87 in 0.2 mi Calm Calm - N/A Fog Light Freezing Fog
1:55 AM 23.0 °F 17.0 °F 23.0 °F 100% 29.86 in 0.2 mi SSW 4.6 mph - N/A Fog Light Freezing Fog
2:15 AM 26.6 °F 18.2 °F 26.6 °F 100% 29.86 in 1.5 mi South 8.1 mph - N/A   Clear
2:35 AM 26.6 °F 21.2 °F 26.6 °F 100% 29.87 in 2.0 mi SSW 4.6 mph - N/A   Clear
2:55 AM 28.4 °F 24.6 °F 28.4 °F 100% 29.88 in 2.0 mi SSW 3.5 mph - N/A   Clear
3:15 AM 28.4 °F - 28.4 °F 100% 29.88 in 2.0 mi Calm Calm - N/A   Clear
3:35 AM 28.4 °F - 28.4 °F 100% 29.89 in 1.8 mi Calm Calm - N/A   Clear
3:55 AM 26.6 °F 21.2 °F 26.6 °F 100% 29.89 in 0.8 mi South 4.6 mph - N/A   Mist
4:15 AM 26.6 °F 21.2 °F 26.6 °F 100% 29.90 in 1.8 mi West 4.6 mph - N/A   Clear
4:35 AM 26.6 °F - 26.6 °F 100% 29.90 in 1.5 mi Calm Calm - N/A   Clear
4:55 AM 26.6 °F 22.6 °F 26.6 °F 100% 29.91 in 1.2 mi SSE 3.5 mph - N/A   Clear
5:15 AM 26.6 °F - 26.6 °F 100% 29.90 in 3.0 mi Calm Calm - N/A   Partly Cloudy
5:35 AM 26.6 °F 22.6 °F 26.6 °F 100% 29.91 in 3.0 mi SSW 3.5 mph - N/A   Partly Cloudy
5:55 AM 26.6 °F 20.0 °F 26.6 °F 100% 29.91 in 4.0 mi South 5.8 mph - N/A   Clear
6:15 AM 28.4 °F 22.2 °F 28.4 °F 100% 29.92 in 3.0 mi South 5.8 mph - N/A   Clear
6:35 AM 28.4 °F 24.6 °F 28.4 °F 100% 29.92 in 3.0 mi South 3.5 mph - N/A   Clear
6:55 AM 28.4 °F 23.3 °F 28.4 °F 100% 29.92 in 3.0 mi WSW 4.6 mph - N/A   Clear
7:35 AM 28.4 °F - 28.4 °F 100% 29.95 in 3.0 mi Calm Calm - N/A   Clear
7:55 AM 28.4 °F - 28.4 °F 100% 29.95 in 2.5 mi Calm Calm - N/A   Clear
8:15 AM 26.6 °F 22.6 °F 26.6 °F 100% 29.96 in 1.5 mi West 3.5 mph - N/A   Clear
8:35 AM 28.4 °F - 28.4 °F 100% 29.97 in 3.0 mi Calm Calm - N/A   Clear
8:55 AM 28.4 °F - 28.4 °F 100% 29.97 in 4.0 mi Calm Calm - N/A   Clear
9:15 AM 30.2 °F 26.7 °F 30.2 °F 100% 29.97 in 7.0 mi West 3.5 mph - N/A   Clear
9:35 AM 32.0 °F 26.4 °F 32.0 °F 100% 29.98 in 8.0 mi West 5.8 mph - N/A   Clear
9:55 AM 32.0 °F 23.6 °F 32.0 °F 100% 29.99 in 9.0 mi WNW 10.4 mph - N/A   Clear
10:15 AM 32.0 °F 23.6 °F 32.0 °F 100% 30.00 in 10.0 mi WNW 10.4 mph - N/A   Clear
10:35 AM 32.0 °F 24.8 °F 32.0 °F 100% 30.01 in 10.0 mi WNW 8.1 mph - N/A   Clear
10:55 AM 35.6 °F 28.0 °F 32.0 °F 87% 30.02 in 10.0 mi WNW 10.4 mph - N/A   Clear
11:15 AM 37.4 °F 30.8 °F 32.0 °F 81% 30.03 in 10.0 mi NW 9.2 mph - N/A   Clear
11:35 AM 39.2 °F 31.2 °F 30.2 °F 70% 30.04 in 10.0 mi NW 13.8 mph - N/A   Clear
11:55 AM 39.2 °F 31.6 °F 30.2 °F 70% 30.05 in 10.0 mi NW 12.7 mph - N/A   Clear
12:15 PM 39.2 °F 31.6 °F 28.4 °F 65% 30.05 in 10.0 mi NNW 12.7 mph - N/A   Clear
12:35 PM 39.2 °F 32.0 °F 30.2 °F 70% 30.06 in 10.0 mi NNW 11.5 mph - N/A   Clear
12:55 PM 39.2 °F 31.2 °F 28.4 °F 65% 30.06 in 10.0 mi NNW 13.8 mph - N/A   Clear
1:15 PM 39.2 °F 31.6 °F 28.4 °F 65% 30.07 in 10.0 mi NNW 12.7 mph - N/A   Clear
1:35 PM 39.2 °F 31.6 °F 30.2 °F 70% 30.08 in 10.0 mi NNW 12.7 mph - N/A   Clear
1:55 PM 39.2 °F 33.0 °F 30.2 °F 70% 30.09 in 10.0 mi NNW 9.2 mph - N/A   Clear
2:15 PM 37.4 °F 29.8 °F 30.2 °F 75% 30.09 in 10.0 mi NNW 11.5 mph - N/A   Clear
2:35 PM 37.4 °F 31.4 °F 30.2 °F 75% 30.10 in 10.0 mi North 8.1 mph - N/A   Clear
2:55 PM 37.4 °F 31.4 °F 30.2 °F 75% 30.10 in 10.0 mi NNW 8.1 mph - N/A   Clear
3:15 PM 37.4 °F 30.8 °F 30.2 °F 75% 30.10 in 10.0 mi NNW 9.2 mph - N/A   Clear
3:55 PM 37.4 °F 32.8 °F 28.4 °F 70% 30.11 in 10.0 mi NNW 5.8 mph - N/A   Clear
4:15 PM 35.6 °F 32.8 °F 28.4 °F 75% 30.11 in 10.0 mi NW 3.5 mph - N/A   Clear
4:35 PM 32.0 °F 28.7 °F 28.4 °F 87% 30.12 in 10.0 mi WNW 3.5 mph - N/A   Clear
4:55 PM 32.0 °F - 26.6 °F 80% 30.12 in 9.0 mi Calm Calm - N/A   Clear
5:15 PM 28.4 °F 24.6 °F 24.8 °F 86% 30.12 in 9.0 mi NW 3.5 mph - N/A   Clear
5:35 PM 28.4 °F - 26.6 °F 93% 30.12 in 10.0 mi Calm Calm - N/A   Clear
5:55 PM 26.6 °F 21.2 °F 23.0 °F 86% 30.13 in 9.0 mi WSW 4.6 mph - N/A   Clear
6:35 PM 24.8 °F - 23.0 °F 93% 30.13 in 7.0 mi Calm Calm - N/A   Clear
6:55 PM 23.0 °F 15.8 °F 23.0 °F 100% 30.13 in 7.0 mi West 5.8 mph - N/A   Clear
7:15 PM 23.0 °F - 23.0 °F 100% 30.14 in 6.0 mi Calm Calm - N/A   Clear
7:35 PM 26.6 °F 22.6 °F 24.8 °F 93% 30.14 in 8.0 mi West 3.5 mph - N/A   Clear
7:55 PM 24.8 °F 20.5 °F 23.0 °F 93% 30.15 in 7.0 mi West 3.5 mph - N/A   Clear
8:15 PM 26.6 °F 22.6 °F 24.8 °F 93% 30.14 in 10.0 mi SW 3.5 mph - N/A   Clear
8:35 PM 24.8 °F - 23.0 °F 93% 30.14 in 9.0 mi Calm Calm - N/A   Clear
8:55 PM 23.0 °F 18.4 °F 21.2 °F 93% 30.14 in 7.0 mi SSW 3.5 mph - N/A   Clear
9:15 PM 21.2 °F 16.4 °F 19.4 °F 93% 30.14 in 7.0 mi SSW 3.5 mph - N/A   Clear
9:35 PM 23.0 °F 17.0 °F 21.2 °F 93% 30.13 in 8.0 mi South 4.6 mph - N/A   Clear
9:55 PM 19.4 °F 14.3 °F 17.6 °F 93% 30.14 in 6.0 mi West 3.5 mph - N/A   Clear
10:15 PM 19.4 °F - 17.6 °F 93% 30.14 in 7.0 mi Calm Calm - N/A   Clear
10:55 PM 19.4 °F 14.3 °F 17.6 °F 93% 30.13 in 7.0 mi SW 3.5 mph - N/A   Clear
11:15 PM 19.4 °F 12.8 °F 17.6 °F 93% 30.12 in 5.0 mi South 4.6 mph - N/A   Clear
11:35 PM 19.4 °F 10.4 °F 17.6 °F 93% 30.13 in 6.0 mi South 6.9 mph - N/A   Clear
11:55 PM 17.6 °F 8.2 °F 15.8 °F 93% 30.13 in 7.0 mi South 6.9 mph - N/A   Clear